Location: Cerro Alto Campground
(35.4250°N, 120.7383°W)
Time: 06:34:46
(UTC-08:00)

Daily predictions for brighter satellites

Satellite Brightness Start Highest point End
(mag) Time Altitude Azimuth Time Altitude Azimuth Time Altitude Azimuth
Cosmos 2218 Rocket 4.1 17:05:28 10° N 17:11:45 88° E 17:17:55 10° S
Cosmos 2278 Rocket 3.1 17:08:38 10° SW 17:14:08 52° WNW 17:19:39 10° N
Okean 1 3.3 17:11:05 10° S 17:15:09 85° E 17:19:13 10° N
Genesis I 3.1 17:12:20 10° NNW 17:16:17 76° ENE 17:20:09 10° SE
Cosmos 1346 Rocket 2.7 17:14:20 10° S 17:18:10 64° E 17:22:02 10° NNE
Cosmos 1536 Rocket 3.9 17:17:21 10° SSW 17:21:48 73° W 17:26:17 10° N
IDEFIX/ARIANE 42P 2.6 17:18:17 10° SSE 17:23:23 59° ENE 17:28:29 10° N
Cosmos 1238 Rocket 3.9 17:21:13 10° SSW 17:23:57 35° W 17:26:53 10° NNW
Thor Agena Rocket 3.6 17:22:19 10° NNE 17:27:36 83° ESE 17:32:52 10° SSW
NOSS 2-1 (E) 3.3 17:26:48 10° SSW 17:30:37 90° S 17:34:50 10° NNE
YAOGAN 1 2.5 17:27:35 10° SSE 17:31:51 64° ENE 17:36:08 10° N
Cosmos 1833 Rocket 3.0 17:27:56 10° N 17:33:19 43° ENE 17:38:37 10° SE
Cosmos 1500 3.1 17:32:21 10° N 17:36:13 84° E 17:40:04 10° S
Cosmos 1743 3.2 17:35:26 10° N 17:39:03 38° E 17:42:39 10° SSE
Timation 2 Rocket 4.2 17:32:35 10° NNW 17:39:26 68° ENE 17:46:16 10° SSE
Cosmos 2082 Rocket 2.2 17:37:20 10° NNW 17:42:57 63° ENE 17:48:35 10° SSE
CZ-2C R/B 2.6 17:38:38 10° S 17:43:38 84° WSW 17:48:49 10° NNW
Meteor 2-21 Rocket 4.4 17:38:53 10° N 17:45:01 63° E 17:51:04 10° SSE
GRACE-2 3.8 17:46:23 10° SSE 17:49:07 57° E 17:51:51 10° N
GRACE-1 3.8 17:46:48 10° SSE 17:49:33 59° E 17:52:17 10° N
USA 234 3.7 17:44:10 10° NE 17:50:35 60° NW 17:56:59 10° WSW
Cosmos 1484 Rocket 2.9 17:50:50 10° SSE 17:54:25 46° ENE 17:57:59 10° N
Delta 2 Rocket 3.0 17:52:54 10° W 17:56:29 86° N 17:58:58 21° E
Nadezhda 3 Rocket 4.1 17:51:10 10° S 17:57:23 80° W 18:03:41 10° N
SKYMED 2 3.5 17:55:14 10° NNE 17:59:34 65° ESE 18:03:51 10° S
Meteor 1-19 Rocket 4.3 17:56:44 10° S 18:02:32 88° W 18:08:26 10° N
Cosmos 2056 Rocket 3.5 17:59:24 10° S 18:04:45 73° ESE 18:10:03 10° NNE
Cosmos 407 Rocket 4.2 18:00:59 10° N 18:05:27 29° ENE 18:09:55 10° SE
SMAP 4.2 18:02:05 10° S 18:06:32 46° W 18:11:01 10° NNW
Okean 2 3.7 18:03:03 10° SSE 18:06:58 43° E 18:09:32 20° NNE
NOSS 3-4 (A) 4.0 18:00:44 10° NNW 18:07:35 50° NE 18:14:48 10° SE
NOSS 3-4 (C) 4.0 18:00:50 10° NNW 18:07:41 49° NE 18:14:53 10° SE
Intercosmos 25 3.0 18:04:37 10° N 18:07:46 83° W 18:11:39 10° S
Cosmos 1892 Rocket 3.8 18:06:31 10° SSE 18:10:38 43° E 18:13:09 21° NNE
Tiangong 1 2.8 18:10:14 10° NW 18:12:32 19° N 18:12:41 19° N
Cosmos 2369 Rocket 2.9 18:12:24 10° SSE 18:17:21 32° ESE 18:18:41 29° ENE
Cosmos 1624 Rocket 4.1 18:12:24 10° SSW 18:17:35 77° WNW 18:22:48 10° NNE
CZ-4 R/B 4.1 18:14:37 10° SSW 18:17:54 22° W 18:21:10 10° NW
Cosmos 1727 Rocket 4.3 18:13:18 10° SSE 18:19:02 40° E 18:23:21 17° NNE
Cosmos 1726 Rocket 3.8 18:15:37 10° N 18:19:56 47° E 18:24:14 10° SSE
NOAA 12 4.3 18:15:45 10° SE 18:20:45 46° ENE 18:25:46 10° N
Meteor 2-9 Rocket 4.0 18:15:50 10° N 18:21:11 66° E 18:26:27 10° SSE
Meteor 1-15 Rocket 4.3 18:17:07 10° N 18:22:52 55° E 18:28:29 10° SSE
Meteor 1-23 Rocket 4.2 18:19:17 10° S 18:24:59 90° ESE 18:30:40 10° N
Meteor 2-4 Rocket 3.7 18:20:46 10° SSW 18:26:07 75° W 18:31:29 10° N
CZ-3B DEB 4.3 18:22:28 10° NW 18:26:43 22° N 18:32:16 14° NE
Cosmos 1340 2.6 18:24:54 10° S 18:28:37 58° E 18:28:48 57° E
Meteor 2-8 Rocket 4.4 18:30:14 10° S 18:36:19 85° W 18:42:28 10° N
Orbus 7S? 3.9 18:36:26 10° SSW 18:38:12 32° SSW 18:38:12 32° SSW
Cosmos 1606 Rocket 3.6 18:35:03 10° N 18:39:33 82° W 18:44:00 10° S
Cosmos 1934 Rocket 4.1 18:37:12 10° N 18:43:26 80° W 18:49:45 10° S
Abrixas 4.2 18:41:53 10° WNW 18:44:32 30° SW 18:44:33 30° SW
Cosmos 1943 Rocket 3.9 18:41:14 10° SSE 18:42:41 16° SE 18:42:41 16° SE
COSMO-SKYMED 1 4.2 18:43:37 10° N 18:47:31 33° WNW 18:51:24 10° SW
METEOR-M 4.0 18:42:39 10° SSE 18:47:57 73° ENE 18:53:17 10° N
Cosmos 1666 3.8 18:46:41 10° NNW 18:50:22 44° W 18:54:04 10° SSW
Cosmos 1452 Rocket 3.3 18:48:24 10° SSW 18:53:38 84° ESE 18:54:40 59° NNE
Cosmos 1339 Rocket 4.3 18:48:18 10° S 18:54:19 71° E 18:56:45 38° NNE
Cosmos 1190 Rocket 4.1 18:52:17 10° NNW 18:57:31 72° WSW 19:02:40 10° S
Cosmos 2058 Rocket 4.1 19:11:21 10° NNW 19:16:29 43° SW 19:19:55 10° SSW
Gbstr 26 Del rocket 4.3 19:12:10 10° SW 19:20:20 80° SE 19:21:09 72° ENE
Cosmos 1153 Rocket 4.4 19:15:57 10° N 19:22:07 83° W 19:28:14 10° S
ATLAS 3B CENTAUR R/B 3.7 19:19:19 10° W 19:35:48 48° SSW 19:37:53 40° SSE
Cosmos 2369 Rocket 3.8 19:56:21 10° WSW 20:00:33 30° WNW 20:00:33 30° WNW
FALCON 9 R/B 3.8 20:07:57 10° W 20:18:19 47° W 20:18:19 47° W
